Tucson, AZ

3:25 AM MST on September 18, 2019 (GMT -0700)
Tucson International

Weather History for KTUS - July, 2019

Change the Weather History Date:

Monday, July 29, 2019

  Actual Average Record
Temperature  
Mean Temperature 93 °F 86 °F  
Max Temperature 105 °F 98 °F 110 °F (1995)
Min Temperature 81 °F 74 °F 62 °F (1913)
Degree Days  
Heating Degree Days 0 0  
Month to date heating degree days 0 0  
Since 1 June heating degree days 0 0  
Since 1 July heating degree days 0 0  
Cooling Degree Days 28 21  
Month to date cooling degree days 750 644  
Year to date cooling degree days 1735 1740  
Since 1 June cooling degree days 1363 1238  
Growing Degree Days 44 (Base 50)    
Moisture  
Dew Point 58 °F    
Average Humidity 33    
Maximum Humidity 53    
Minimum Humidity 10    
Precipitation  
Precipitation 0.14 in 0.09 in 3.93 in (1958)
Month to date precipitation 0.70 2.05  
Year to date precipitation 5.73 5.32  
Sea Level Pressure  
Sea Level Pressure 29.85 in    
Wind  
Wind Speed 8 mph (East)    
Max Wind Speed 22 mph    
Max Gust Speed 32 mph    
Visibility 10 miles    
Events Rain , Thunderstorm    
T = Trace of Precipitation, MM = Missing Value Source: NWS Daily Summary

Daily Weather History Graph

Daily Weather History Graph

Search for Another Location

Airport or City:

Astronomy

Jul. 29, 2019 Rise Set
Actual Time 5:36 AM MST 7:23 PM MST
Civil Twilight 5:09 AM MST 7:50 PM MST
Nautical Twilight 4:37 AM MST 8:22 PM MST
Astronomical Twilight 4:03 AM MST 8:56 PM MST
Moon 2:55 AM MST (7/29) 5:26 PM MST (7/29)
Length of Visible Light 14h 40m
Length of Day
13h 46m
Waning Crescent, 8% of the Moon is Illuminated
Jul 29
Waning Crescent
Jul 31
New
Aug 7
First Quarter
Aug 15
Full
Aug 23
Last Quarter

Hourly Weather History & Observations

Time (MST) Temp. Heat Index Dew Point Humidity Pressure Visibility Wind Dir Wind Speed Gust Speed Precip Events Conditions
5:53 AM 86.0 °F 84.9 °F 57.0 °F 37% 29.83 in 10.0 mi SE 5.8 mph - N/A   Clear
6:53 AM 87.1 °F 86.1 °F 57.9 °F 37% 29.84 in 10.0 mi South 9.2 mph - N/A   Clear
7:53 AM 88.0 °F 86.9 °F 57.9 °F 36% 29.86 in 10.0 mi South 11.5 mph - N/A   Clear
8:53 AM 90.0 °F 88.6 °F 57.0 °F 33% 29.86 in 10.0 mi South 11.5 mph - N/A   Clear
9:53 AM 93.9 °F 92.2 °F 55.9 °F 28% 29.86 in 10.0 mi NNE 3.5 mph - N/A   Clear
10:53 AM 95.0 °F 92.7 °F 54.0 °F 25% 29.86 in 10.0 mi West 5.8 mph - N/A   Clear
11:53 AM 99.0 °F 96.9 °F 54.0 °F 22% 29.83 in 10.0 mi Variable 4.6 mph - N/A   Clear
12:53 PM 100.0 °F 97.9 °F 53.1 °F 21% 29.82 in 10.0 mi Calm Calm - N/A   Clear
1:30 PM 100.9 °F 99.1 °F 54.0 °F 21% 29.97 in 10.0 mi Variable 3.5 mph - N/A   Clear
1:53 PM 100.9 °F 99.1 °F 54.0 °F 21% 29.79 in 10.0 mi Variable 4.6 mph - N/A   Clear
2:53 PM 102.0 °F - 52.0 °F 19% 29.75 in 10.0 mi Variable 5.8 mph 19.6 mph N/A   Partly Cloudy
3:53 PM 105.1 °F - 51.1 °F 16% 29.72 in 10.0 mi NW 8.1 mph - N/A   Scattered Clouds
4:53 PM 102.9 °F - 50.0 °F 17% 29.70 in 10.0 mi North 12.7 mph 19.6 mph N/A   Mostly Cloudy
5:43 PM 93.9 °F 92.2 °F 55.9 °F 28% 29.91 in 10.0 mi East 18.4 mph 28.8 mph N/A Thunderstorm Mostly Cloudy
5:53 PM 87.1 °F 87.5 °F 62.1 °F 43% 29.76 in 4.0 mi ESE 13.8 mph 26.5 mph 0.00 in Rain , Thunderstorm Heavy Rain
6:18 PM 86.0 °F 87.6 °F 64.9 °F 49% 29.93 in 10.0 mi Variable 3.5 mph - 0.14 in Rain , Thunderstorm Light Rain
6:27 PM 87.1 °F 88.3 °F 64.0 °F 46% 29.93 in 10.0 mi Calm Calm - 0.14 in   Scattered Clouds
6:53 PM 88.0 °F 92.1 °F 69.1 °F 53% 29.78 in 10.0 mi East 6.9 mph - 0.14 in   Scattered Clouds
7:53 PM 84.0 °F 85.4 °F 64.0 °F 51% 29.83 in 10.0 mi East 9.2 mph - N/A   Mostly Cloudy
8:53 PM 87.1 °F 87.8 °F 63.0 °F 44% 29.83 in 10.0 mi ENE 4.6 mph - N/A   Clear
9:14 PM 87.1 °F 87.5 °F 62.1 °F 43% 30.01 in 10.0 mi NE 9.2 mph - N/A Thunderstorm Clear
9:27 PM 87.1 °F 86.7 °F 60.1 °F 40% 30.01 in 10.0 mi ENE 17.3 mph 32.2 mph N/A   Clear
9:53 PM 84.9 °F 84.4 °F 59.0 °F 41% 29.86 in 10.0 mi East 13.8 mph 26.5 mph N/A   Partly Cloudy
10:53 PM 82.0 °F 83.0 °F 62.1 °F 51% 29.88 in 10.0 mi Calm Calm - N/A   Clear
11:53 PM 81.0 °F 81.7 °F 61.0 °F 50% 29.85 in 10.0 mi WSW 10.4 mph - 0.00 in   Scattered Clouds